Stations météo

réclame
Mon MeteoGroup
Ronchi Dei Legionari, Italie (16108): Température de l'air & dewpoint: 16.10.2017 15:00:00 - 22.10.2017 15:00:00 (CEST)Ronchi Dei Legionari, Italie (16108): Vitesse du vent: 16.10.2017 15:00:00 - 22.10.2017 15:00:00 (CEST)Ronchi Dei Legionari, Italie (16108): Direction du vent: 16.10.2017 15:00:00 - 22.10.2017 15:00:00 (CEST)Ronchi Dei Legionari, Italie (16108): reduced air pressure: 16.10.2017 15:00:00 - 22.10.2017 15:00:00 (CEST)Ronchi Dei Legionari, Italie (16108): visibility: 16.10.2017 15:00:00 - 22.10.2017 15:00:00 (CEST)Ronchi Dei Legionari, Italie (16108): Quantités de précipitations: 16.10.2017 15:00:00 - 22.10.2017 15:00:00 (CEST)
Date & Time tt [°C] td [°C] ff [km/h] ff [knt] dd ppp [hPa] vv [km] rr [mm]
22.10.2017 15:00:00 18,0 15,0 8 4 NNE - 7 -
22.10.2017 14:00:00 16,5 14,6 11 6 N 1010,8 5 -
22.10.2017 13:00:00 15,0 14,0 11 6 NNE - 4,0 -
22.10.2017 12:00:00 14,0 13,0 13 7 N - 2,0 -
22.10.2017 11:00:00 14,4 13,4 8 4 N 1013,2 2,0 0,0
22.10.2017 10:00:00 14,0 13,0 8 4 N - 2,0 -
22.10.2017 09:00:00 14,0 13,0 8 4 N - 2,0 -
22.10.2017 08:00:00 14,2 13,1 4 2 N 1014,5 2,5 -
22.10.2017 07:00:00 14,0 13,0 4 2 N - 6 -
22.10.2017 06:00:00 14,0 13,0 4 2 N - 7 -
22.10.2017 05:00:00 14,1 12,7 5 3 NNE 1016,2 7 0,0
22.10.2017 04:00:00 14,0 13,0 5 3 N - 6 -
22.10.2017 03:00:00 14,0 13,0 4 2 - - 6 -
22.10.2017 02:00:00 14,0 12,7 2 1 NW 1018,4 7 -
22.10.2017 01:00:00 14,0 13,0 4 2 N - 8 -
22.10.2017 00:00:00 14,0 13,0 5 3 NE - 5 -
21.10.2017 23:00:00 14,4 12,8 2 1 WNW 1019,4 5 0,0
21.10.2017 22:00:00 14,0 13,0 2 1 - - 5 -
21.10.2017 21:00:00 15,0 13,0 2 1 - - 5 -
21.10.2017 20:00:00 14,7 12,6 2 1 - 1019,6 5 -
21.10.2017 19:00:00 16,0 12,0 2 1 - - 5 -
21.10.2017 18:00:00 17,0 12,0 2 1 - - 6 -
21.10.2017 17:00:00 16,9 11,7 2 1 - 1019,6 6 0,0
21.10.2017 16:00:00 17,0 11,0 4 2 - - 6 -
21.10.2017 15:00:00 17,0 10,0 5 3 ESE - 6 -
21.10.2017 14:00:00 16,7 11,3 4 2 W 1020,6 6 -
21.10.2017 13:00:00 16,0 11,0 2 1 - - 7 -
21.10.2017 12:00:00 16,0 12,0 4 2 - - 7 -
21.10.2017 11:00:00 15,1 12,3 4 2 N 1021,7 7 0,0
21.10.2017 10:00:00 14,0 13,0 4 2 - - 6 -
21.10.2017 09:00:00 13,0 12,0 4 2 - - 6 -
21.10.2017 08:00:00 12,7 12,0 4 2 N 1020,8 5 -
21.10.2017 07:00:00 13,0 12,0 5 3 NNW - 5 -
21.10.2017 06:00:00 13,0 12,0 2 1 N - 5 -
21.10.2017 05:00:00 12,6 11,8 2 1 - 1020,6 4,5 0,0
21.10.2017 04:00:00 12,0 12,0 5 3 N - 2,5 -
21.10.2017 03:00:00 13,0 12,0 2 1 - - 2,7 -
21.10.2017 02:00:00 13,0 11,9 5 3 N 1021,5 5 -
21.10.2017 01:00:00 13,0 12,0 2 1 - - 4,4 -
21.10.2017 00:00:00 13,0 12,0 4 2 W - 4,0 -
20.10.2017 23:00:00 12,9 11,8 5 3 NW 1021,9 4,0 0,0
20.10.2017 22:00:00 14,0 12,0 8 4 N - 5 -
20.10.2017 21:00:00 14,0 13,0 2 1 NW - 5 -
20.10.2017 20:00:00 14,6 12,6 2 1 - 1021,1 6 -
20.10.2017 19:00:00 15,0 12,0 0 0 N - 7 -
20.10.2017 18:00:00 16,0 12,0 2 1 - - 7 -
20.10.2017 17:00:00 16,3 12,0 5 3 NNE 1020,4 6 0,0
20.10.2017 16:00:00 16,0 12,0 5 3 NNE - 5 -
20.10.2017 15:00:00 16,0 12,0 9 5 NW - 4,0 -
20.10.2017 14:00:00 15,7 12,2 8 4 W 1021,2 4,0 -
20.10.2017 13:00:00 16,0 12,0 9 5 WSW - 4,0 -
20.10.2017 12:00:00 15,0 12,0 11 6 SW - 4,0 -
20.10.2017 11:00:00 14,6 12,7 4 2 - 1020,8 5 0,0
20.10.2017 10:00:00 14,0 12,0 5 3 NNE - 5 -
20.10.2017 09:00:00 13,0 12,0 4 2 E - 5 -
20.10.2017 08:00:00 12,6 11,6 8 4 E 1019,6 3,0 -
20.10.2017 07:00:00 12,0 12,0 2 1 - - 2,0 -
20.10.2017 06:00:00 12,0 12,0 4 2 - - 2,0 -
20.10.2017 05:00:00 11,9 11,6 5 3 N 1019,1 1,7 0,0
20.10.2017 04:00:00 11,0 11,0 5 3 N - 1,9 -
20.10.2017 03:00:00 11,0 10,0 5 3 N - 2,1 -
20.10.2017 02:00:00 10,4 10,3 4 2 N 1019,3 1,6 -
20.10.2017 01:00:00 10,0 10,0 4 2 N - 0,1 -
20.10.2017 00:00:00 9,0 9,0 5 3 E - 0,3 -
19.10.2017 23:00:00 8,3 8,1 4 2 ENE 1019,3 0,3 0,0
19.10.2017 22:00:00 9,0 9,0 4 2 ESE - 0,3 -
19.10.2017 21:00:00 10,0 10,0 4 2 SE - 1,0 -
19.10.2017 20:00:00 10,1 9,5 4 2 E 1018,8 1,0 -
19.10.2017 19:00:00 13,0 12,0 2 1 SW - 2,0 -
19.10.2017 18:00:00 15,0 13,0 8 4 WSW - 3,0 -
19.10.2017 17:00:00 16,2 12,9 5 3 W 1018,2 3,0 0,0
19.10.2017 16:00:00 17,0 13,0 5 3 SW - 3,0 -
19.10.2017 15:00:00 17,0 13,0 9 5 SW - 3,0 -
19.10.2017 14:00:00 16,1 12,4 4 2 - 1019,2 4,0 -
19.10.2017 13:00:00 16,0 12,0 4 2 - - 3,5 -
19.10.2017 12:00:00 15,0 12,0 2 1 - - 3,5 -
19.10.2017 11:00:00 14,3 12,6 2 1 - 1020,0 4,0 0,0
19.10.2017 10:00:00 14,0 13,0 2 1 - - 3,0 -
19.10.2017 09:00:00 13,0 12,0 2 1 - - 1,5 -
19.10.2017 08:00:00 12,0 12,0 4 2 W - 2,0 -
19.10.2017 07:00:00 12,0 12,0 2 1 - - 2,5 -
19.10.2017 06:00:00 12,0 12,0 4 2 - - 3,5 -
19.10.2017 05:00:00 11,9 11,8 2 1 - 1018,4 2,6 0,0
19.10.2017 04:00:00 12,0 12,0 2 1 - - 2,8 -
19.10.2017 03:00:00 - - - - - - - -
19.10.2017 02:00:00 10,8 10,7 4 2 - 1019,3 1,1 -
19.10.2017 01:00:00 9,0 9,0 4 2 WNW - - -
19.10.2017 00:00:00 9,0 8,0 0 0 N - 0,1 -
18.10.2017 23:00:00 8,4 8,3 2 1 NNE 1019,2 0,3 0,0
18.10.2017 22:00:00 10,0 9,0 2 1 - - 0,3 -
18.10.2017 21:00:00 11,0 10,0 4 2 NE - 0,6 -
18.10.2017 20:00:00 11,8 11,4 4 2 ENE 1018,7 1,5 -
18.10.2017 19:00:00 14,0 13,0 4 2 - - 4,0 -
18.10.2017 18:00:00 16,0 14,0 5 3 SW - 5 -
18.10.2017 17:00:00 18,0 14,3 8 4 SW 1018,4 5 0,0
18.10.2017 16:00:00 19,0 14,0 4 2 - - 5 -
18.10.2017 15:00:00 19,0 14,0 8 4 S - 5 -
18.10.2017 14:00:00 18,6 14,0 4 2 - 1019,5 5 -
18.10.2017 13:00:00 18,0 13,0 4 2 - - 5 -
18.10.2017 12:00:00 18,0 13,0 2 1 - - 5 -
18.10.2017 11:00:00 16,2 13,7 2 1 - 1020,7 6 0,0
18.10.2017 10:00:00 14,0 14,0 4 2 - - 5 -
18.10.2017 09:00:00 12,0 12,0 5 3 ESE - 2,0 -
18.10.2017 08:00:00 12,2 12,1 8 4 ENE 1020,5 0,2 -
18.10.2017 07:00:00 12,0 12,0 4 2 ESE - 0,4 -
18.10.2017 06:00:00 12,0 12,0 2 1 - - 0,1 -
18.10.2017 05:00:00 12,0 11,9 5 3 NNE 1020,9 10 0,0
18.10.2017 04:00:00 12,0 11,0 5 3 E - 10 -
18.10.2017 03:00:00 12,0 12,0 8 4 E - - -
18.10.2017 02:00:00 11,7 11,6 2 1 - 1022,2 - -
18.10.2017 01:00:00 12,0 11,0 2 1 - - - -
18.10.2017 00:00:00 12,0 12,0 2 1 - - 0,1 -
17.10.2017 23:00:00 13,1 13,0 4 2 N 1023,0 0,1 0,0
17.10.2017 22:00:00 13,0 13,0 5 3 ENE - 0,1 -
17.10.2017 21:00:00 12,0 12,0 4 2 ENE - 0,1 -
17.10.2017 20:00:00 12,7 12,4 2 1 ESE 1023,2 0,5 -
17.10.2017 19:00:00 15,0 15,0 4 2 S - 2,0 -
17.10.2017 18:00:00 17,0 15,0 9 5 ESE - 5 -
17.10.2017 17:00:00 18,6 15,0 13 7 ESE 1023,5 10 0,0
17.10.2017 16:00:00 20,0 16,0 15 8 SSE - 10 -
17.10.2017 15:00:00 22,0 15,0 5 3 - - 10 -
17.10.2017 14:00:00 21,1 14,7 8 4 S 1024,7 10 -
17.10.2017 13:00:00 20,0 14,0 4 2 - - 10 -
17.10.2017 12:00:00 19,0 13,0 4 2 - - 10 -
17.10.2017 11:00:00 18,4 12,3 4 2 - 1026,1 10 0,0
17.10.2017 10:00:00 15,0 12,0 2 1 - - 10 -
17.10.2017 09:00:00 11,0 11,0 2 1 NE - 10 -
17.10.2017 08:00:00 6,0 5,9 4 2 - 1025,7 10 -
17.10.2017 07:00:00 6,0 6,0 4 2 N - 10 -
17.10.2017 06:00:00 8,0 8,0 4 2 NNE - 0,2 -
17.10.2017 05:00:00 7,8 7,7 5 3 N 1025,8 0,3 0,0
17.10.2017 04:00:00 8,0 8,0 4 2 NE - 0,2 -
17.10.2017 03:00:00 8,0 8,0 4 2 N - - -
17.10.2017 02:00:00 8,3 8,2 4 2 N 1026,7 0,2 -
17.10.2017 01:00:00 9,0 9,0 4 2 NNE - 0,1 -
17.10.2017 00:00:00 9,0 9,0 4 2 N - 10 -
16.10.2017 23:00:00 10,2 10,0 4 2 N 1026,9 10 0,0
16.10.2017 22:00:00 12,0 12,0 2 1 NNE - 10 -
16.10.2017 21:00:00 12,0 12,0 8 4 NE - 10 -
16.10.2017 20:00:00 13,9 12,8 8 4 ESE 1026,6 10 -
16.10.2017 19:00:00 17,0 14,0 4 2 SSE - 10 -
16.10.2017 18:00:00 20,0 15,0 9 5 SSE - 10 -
16.10.2017 17:00:00 21,4 14,4 9 5 SE 1026,3 10 0,0
16.10.2017 16:00:00 22,0 14,0 8 4 SSE - 10 -
16.10.2017 15:00:00 22,0 16,0 11 6 SSE - 10 -

tt = Température de l'air
td = dewpoint
ff = Vitesse du vent
dd = Direction du vent
ppp = reduced air pressure
vv = visibility
rr = Quantités de précipitations

stations d'obs. à proximité